Language: 


Des rapports , des résumés tant et plus, au choix de chacun....


Données Historiques de Météogheer
Journalier Rapport pour Janvier 10, 2018 Unitée:  Métrique    Impériale   Les deux
Suivant Jour »
Journalier Hebdomadaire Mensuel Annuel Sur mesure
  Max: Min: Moyenne:
Température: 10.6 °C 7.4 °C 8.6 °C
Point de rosée: 11.0 °C 7.0 °C 8.7 °C
Humidité: 98% 95% 97%
Vent: 16.6km/h 0.0km/h 4.5km/h
Rafales: 16.6km/h - -
Vent- - SSW
Pression: 1007.0 hPa 1005.0 hPa -
Pluie: 5.8 mm    
Historical Graphs
 
 
Données tabulaires pour Janvier 10, 2018
Heure Température Point de rosée Pression Vent Vent Rafales Humidité Pluie Taux (Horaire) Conditions
00:01 7.4 °C 7.0 °C 1006.0 hPa SSW 5.5 km/h 9.7 km/h 98% 0.0 mm
00:02 7.4 °C 7.0 °C 1006.0 hPa SSW 1.8 km/h 9.7 km/h 98% 0.0 mm
00:07 7.4 °C 7.0 °C 1006.0 hPa SSW 5.8 km/h 9.7 km/h 98% 0.0 mm
00:24 7.5 °C 8.0 °C 1006.0 hPa SSW 5.8 km/h 10.5 km/h 98% 0.0 mm
00:29 7.5 °C 8.0 °C 1007.0 hPa Calm   10.5 km/h 98% 0.0 mm
00:53 7.5 °C 8.0 °C 1006.0 hPa Calm   6.4 km/h 98% 0.0 mm
14:32 9.9 °C 10.0 °C 1005.0 hPa WSW 10.1 km/h 14.8 km/h 98% 0.0 mm
14:47 10.6 °C 11.0 °C 1005.0 hPa SSW 9.7 km/h 12.6 km/h 98% 0.0 mm
14:53 10.5 °C 11.0 °C 1005.0 hPa WSW 16.6 km/h 16.6 km/h 98% 0.0 mm
14:59 10.3 °C 10.0 °C 1006.0 hPa WSW 9.7 km/h 16.6 km/h 97% 0.0 mm
15:20 9.8 °C 9.0 °C 1005.0 hPa SSW 6.4 km/h 13.0 km/h 96% 0.0 mm
15:54 9.6 °C 9.0 °C 1006.0 hPa SSW 5.5 km/h 10.8 km/h 96% 0.0 mm
16:15 9.5 °C 9.0 °C 1006.0 hPa Calm   8.7 km/h 95% 0.0 mm
16:21 9.3 °C 9.0 °C 1006.0 hPa SSW 9.0 km/h 9.0 km/h 95% 0.0 mm
16:28 9.0 °C 9.0 °C 1006.0 hPa SSE 6.4 km/h 12.2 km/h 95% 0.0 mm
16:36 8.8 °C 9.0 °C 1006.0 hPa SSW 4.3 km/h 9.3 km/h 96% 0.0 mm
16:45 8.7 °C 9.0 °C 1007.0 hPa Calm   9.3 km/h 96% 0.0 mm
16:54 8.5 °C 9.0 °C 1007.0 hPa South 5.5 km/h 7.9 km/h 96% 0.0 mm
17:02 8.5 °C 9.0 °C 1007.0 hPa Calm   6.9 km/h 97% 0.0 mm
17:09 8.5 °C 9.0 °C 1007.0 hPa Calm   9.0 km/h 98% 0.0 mm
17:30 8.4 °C 9.0 °C 1007.0 hPa SSE 3.5 km/h 9.3 km/h 98% 0.0 mm
17:35 8.3 °C 9.0 °C 1007.0 hPa South 5.5 km/h 9.3 km/h 98% 0.0 mm
17:40 8.2 °C 8.0 °C 1007.0 hPa Calm   10.8 km/h 98% 0.0 mm
17:59 8.1 °C 8.0 °C 1007.0 hPa SSW 1.8 km/h 9.0 km/h 98% 0.0 mm
18:06 8.0 °C 8.0 °C 1007.0 hPa SSW 5.8 km/h 9.0 km/h 98% 0.0 mm
18:25 8.2 °C 8.0 °C 1007.0 hPa SSW 5.5 km/h 9.3 km/h 98% 0.0 mm
18:30 8.2 °C 8.0 °C 1007.0 hPa Calm   9.3 km/h 98% 0.0 mm
18:48 8.1 °C 8.0 °C 1007.0 hPa SSW 5.8 km/h 9.7 km/h 98% 0.0 mm
19:05 8.0 °C 8.0 °C 1006.0 hPa Calm   6.9 km/h 98% 0.0 mm
Données Historique de Météo Turbie

Mise a jour : 22/05/2018 19:52:12
Généré par Cumulus 1.9.4 (1099)